Weather History for Hettinger, ND

Change the Weather History Date:

Tuesday, November 20, 2012

  Actual Average Record
Temperature  
Mean Temperature 42 °F -  
Max Temperature 59 °F 38 °F 62 °F (2001)
Min Temperature 25 °F 15 °F -3 °F (2011)
Degree Days  
Heating Degree Days 23 38  
Month to date heating degree days 607 670  
Since 1 July heating degree days 1595 1725  
Moisture  
Dew Point 27 °F    
Average Humidity 59    
Maximum Humidity 78    
Minimum Humidity 33    
Precipitation  
Precipitation 0.00 in 0.01 in 0.07 in (2007)
Month to date precipitation 0.06 0.56  
Year to date precipitation 14.58 15.75  
Sea Level Pressure  
Sea Level Pressure 29.97 in    
Wind  
Wind Speed 4 mph (SW)    
Max Wind Speed 12 mph    
Max Gust Speed 14 mph    
Visibility 10 miles    
Events      
T = Trace of Precipitation, MM = Missing Value Source: NWS Daily Summary

Daily Weather History Graph

Daily Weather History Graph

Search for Another Location

Airport:

Trip Planner

Search our weather history database for the weather conditions in past years. The results will help you decide how hot, cold, wet, or windy it might be!

Date:

Astronomy

Nov. 20, 2012 Rise Set
Actual Time 6:58 AM MST 4:13 PM MST
Civil Twilight 6:25 AM MST 4:46 PM MST
Nautical Twilight 5:49 AM MST 5:23 PM MST
Astronomical Twilight 5:13 AM MST 5:58 PM MST
Moon 12:22 PM MST (11/20) No Moon Set
Length of Visible Light 10h 20m
Length of Day
9h 14m
First Quarter, 52% of the Moon is Illuminated
Nov 20
First Quarter
Nov 28
Full
Dec 6
Last Quarter
Dec 13
New
Dec 19
First Quarter

Hourly Weather History & Observations

Time (MST) Temp. Windchill Dew Point Humidity Pressure Visibility Wind Dir Wind Speed Gust Speed Precip Events Conditions
1:53 AM 34.0 °F 28.0 °F 24.1 °F 67% 30.05 in 10.0 mi SSE 6.9 mph - N/A   Clear
2:53 AM 34.0 °F 28.0 °F 25.0 °F 70% 30.02 in 10.0 mi SSE 6.9 mph - N/A   Clear
3:53 AM 34.0 °F 28.0 °F 25.0 °F 70% 30.02 in 10.0 mi SSE 6.9 mph - N/A   Clear
4:53 AM 32.0 °F 27.5 °F 24.1 °F 73% 30.02 in 10.0 mi South 4.6 mph - N/A   Clear
5:53 AM 32.0 °F - 24.1 °F 73% 30.02 in 10.0 mi Calm Calm - N/A   Clear
6:53 AM 28.9 °F 25.2 °F 23.0 °F 78% 30.02 in 10.0 mi West 3.5 mph - N/A   Clear
7:53 AM 30.0 °F - 24.1 °F 79% 30.01 in 10.0 mi Calm Calm - N/A   Clear
8:53 AM 37.9 °F 35.5 °F 27.0 °F 65% 30.00 in 10.0 mi SW 3.5 mph - N/A   Clear
9:53 AM 46.0 °F 41.4 °F 28.9 °F 51% 29.99 in 10.0 mi WSW 9.2 mph - N/A   Clear
10:53 AM 52.0 °F - 30.0 °F 43% 29.96 in 10.0 mi WSW 5.8 mph - N/A   Clear
11:53 AM 53.1 °F - 30.0 °F 41% 29.95 in 10.0 mi West 6.9 mph - N/A   Clear
12:53 PM 57.9 °F - 30.0 °F 35% 29.92 in 10.0 mi West 4.6 mph - N/A   Clear
1:53 PM 59.0 °F - 30.0 °F 33% 29.92 in 10.0 mi West 6.9 mph - N/A   Clear
2:53 PM 55.9 °F - 30.9 °F 39% 29.93 in 10.0 mi WSW 4.6 mph - N/A   Clear
3:53 PM 54.0 °F - 30.0 °F 40% 29.94 in 10.0 mi SSW 3.5 mph - N/A   Clear
4:53 PM 48.9 °F - 30.0 °F 48% 29.95 in 10.0 mi Calm Calm - N/A   Clear
5:53 PM 37.9 °F - 27.0 °F 65% 29.97 in 10.0 mi Calm Calm - N/A   Clear
6:53 PM 39.0 °F - 28.0 °F 65% 29.96 in 10.0 mi Calm Calm - N/A   Clear
7:53 PM 32.0 °F - 26.1 °F 79% 29.98 in 10.0 mi Calm Calm - N/A   Clear
8:53 PM 36.0 °F - 27.0 °F 70% 29.94 in 10.0 mi Calm Calm - N/A   Clear
9:53 PM 36.0 °F - 26.1 °F 67% 29.92 in 10.0 mi Calm Calm - N/A   Clear
10:53 PM 43.0 °F 41.3 °F 28.0 °F 56% 29.88 in 10.0 mi ESE 3.5 mph - N/A   Clear
11:53 PM 46.0 °F - 27.0 °F 47% 29.86 in 10.0 mi Calm Calm - N/A   Clear